Meteo Giornale » Osservazioni meteo Italia » Bari-Palese Macchie

ore: 19:20 - Osservazioni Meteo Bari-Palese Macchie
Lat. 41° 8' N Lon. 16° 47' E Alt. 34 metri s.l.m.

nuvoloso Europe/Rome

11 °C

Nuvoloso

Temp. 24 Ore

10 °C

15 °C

Ovest/Sud-Ovest

13 Km/h

Dew point 8 °C

Umidità 81 %

Visibilità  10 Km

Il sole sorge alle ore 07:08

Il sole tramonta alle ore 16:26

Data e Ora Cielo e Fenomeni T °C DP °C Um. % Pres. hPa Vis. km Vento km/h
Oggi h: 19:20 nuvoloso Nuvoloso 11 8 81 1017 10 O/SO 13
Oggi h: 18:50 coperto_pioggia Pioggia Debole 11 9 87 1017 10 SO 11.1
Oggi h: 18:20 nuvoloso Nuvoloso 11 10 93 1017 10 SO 9.3
Oggi h: 17:50 coperto_pioggia Pioggia 11 10 93 1017 10 O/SO 9.3
Oggi h: 17:20 coperto_pioggia Pioggia 11 10 93 1017 10 N 3.7
Oggi h: 16:50 coperto_pioggia Pioviggine Leggera 11 10 93 1017 10 SE 7.4
Oggi h: 16:20 coperto_pioggia Pioviggine Leggera 11 10 93 1017 10 SE 7.4
Oggi h: 15:50 nuvoloso Nuvoloso 12 10 87 1017 10 S/SO 7.4
Oggi h: 15:20 nuvoloso Nuvoloso 12 9 81 1017 10 O 7.4
Oggi h: 14:50 coperto_pioggia Pioggia Debole 12 9 81 1017 10 O/NO 13
Oggi h: 14:20 coperto_pioggia Pioggia Debole 13 9 76 1017 10 O/NO 18.5
Oggi h: 13:50 poco_nuvoloso Poco Nuvoloso 13 10 81 1017 10 O/NO 22.2
Oggi h: 13:20 poco_nuvoloso Poco Nuvoloso 15 9 67 1018 10 O/NO 18.5
Oggi h: 12:20 poco_nuvoloso Poco Nuvoloso 15 9 67 1018 10 NO 14.8
Oggi h: 11:50 poco_nuvoloso Poco Nuvoloso 14 8 67 1018 10 NO 11.1
Oggi h: 11:20 poco_nuvoloso Poco Nuvoloso 15 7 58 1018 10 SO 11.1
Oggi h: 10:50 sereno Sereno 15 7 58 1018 10 S/SO 13
Oggi h: 10:20 sereno Sereno 15 6 54 1019 10 SO 9.3
Oggi h: 09:50 sereno Sereno 15 6 54 1019 10 SO 9.3
Oggi h: 09:20 sereno Sereno 15 6 54 1019 10 SO 11.1
Oggi h: 08:50 sereno Sereno 15 5 51 1019 10 SO 13
Oggi h: 08:20 sereno Sereno 14 6 58 1018 10 SO 9.3
Oggi h: 07:50 sereno Sereno 13 7 66 1018 10 O/SO 9.3
Oggi h: 07:20 sereno Sereno 14 7 62 1018 10 O/SO 14.8
Oggi h: 06:50 sereno Sereno 13 7 66 1018 10 O/SO 13
Oggi h: 06:20 sereno Sereno 12 7 71 1018 10 N 5.5
Oggi h: 05:50 sereno Sereno 12 7 71 1018 10 N 5.5
Oggi h: 05:20 sereno Sereno 11 7 76 1018 10 O/SO 7.4
Oggi h: 04:50 sereno Sereno 11 7 76 1018 10 O/SO 7.4
Oggi h: 04:20 sereno Sereno 11 6 71 1018 10 S/SO 11.1
Oggi h: 03:50 sereno Sereno 11 6 71 1018 10 S/SO 11.1
Oggi h: 03:20 sereno Sereno 11 6 71 1018 10 S/SO 11.1
Oggi h: 02:50 sereno Sereno 10 6 76 1018 10 S/SO 7.4
Oggi h: 02:20 sereno Sereno 10 6 76 1017 10 S/SO 7.4
Oggi h: 01:50 sereno Sereno 12 7 71 1018 10 S/SO 9.3
Oggi h: 01:20 sereno Sereno 12 7 71 1018 10 S/SO 9.3
Oggi h: 00:50 sereno Sereno 12 7 71 1018 10 SO 11.1
Oggi h: 00:20 sereno Sereno 11 7 76 1018 10 SO 11.1
Ieri h: 23:50 sereno Sereno 11 7 76 1018 10 S/SO 11.1
Ieri h: 23:20 sereno Sereno 11 7 76 1018 10 S/SO 11.1
Ieri h: 22:50 sereno Sereno 12 7 71 1018 10 S/SO 11.1
Ieri h: 22:20 sereno Sereno 12 7 71 1018 10 S/SO 11.1
Ieri h: 21:50 sereno Sereno 12 8 76 1018 10 S 9.3
Ieri h: 21:20 sereno Sereno 12 8 76 1018 10 S/SO 11.1
Ieri h: 20:50 sereno Sereno 12 8 76 1018 10 SO 11.1
Ieri h: 20:20 sereno Sereno 13 8 71 1018 10 S/SO 7.4
Ieri h: 19:50 sereno Sereno 13 8 71 1017 10 S/SO 11.1
Ieri h: 19:20 sereno Sereno 13 8 71 1017 10 S/SO 11.1
Ieri h: 18:50 poco_nuvoloso Poco Nuvoloso 14 8 67 1017 10 S/SO 9.3